Find Starlink 6114

NORAD ID: 56116 Int'l Des: 2023-046 Owner: SPXS Country: US Constellation: starlink operational
LEOCIRCULAR

現在のビュー

3D地球を読み込み中...

About Starlink 6114

Starlink 6114 (NORAD 56116) is a starlink constellation satellite (v1.5) launched Mar 29, 2023 by SPXS of US. It operates in LEO, CIRCULAR orbit with a mass of 305.00 kg.

Starlink 6114について

説明を読み込み中...

次回通過

Passes for default location (London). Set your location on the main map for personalized predictions.

高度履歴

Loading altitude history...

軌道要素

1 56116U 23046Z 26170.73852095 .00000025 00000-0 10425-4 0 9992
2 56116 43.0002 305.6589 0001099 280.7551 79.3176 15.27591518177634
Epoch: Jun 19, 2026 • Age: 20 hours

現在のステータス

高度 482.0 km
速度 7.63 km/s
衛星直下点 11.70°N, 168.2°W
打ち上げ日 Mar 29, 2023
運用期間 3.2 years
タイプ internet

技術仕様

分類 Payload
質量 305.00 kg
乾燥質量 290.00 kg
総質量 305.00 kg
長さ 0.20 m
直径 2.80 m
スパン 9.00 m
形状 Box + pan
製造者 SPXS
バスタイプ Starlink
フェーズステータス In Orbit
所有者/国 SPXS/US

Most Searched